Regional Weather Roundup
Issued by NWS

Home | Current Version | Previous Version | Graphics & Text | Print | Product List | Glossary Off
Versions: 1 2 3 4 5 6 7 8 9 10 11 12 13 14 15 16 17 18 19 20 21 22 23 24 25 26 27 28 29 30 31 32 33 34 35 36 37 38 39 40 41 42 43 44 45 46 47 48 49 50

000
ASUS43 KTOP 240208
RWRKS

WEATHER ROUNDUP FOR KANSAS
NATIONAL WEATHER SERVICE GOODLAND KS
800 PM CST FRI FEB 23 2018

NOTE:  "FAIR" INDICATES FEW OR NO CLOUDS BELOW 12,000 FEET WITH NO
SIGNIFICANT WEATHER AND/OR OBSTRUCTIONS TO VISIBILITY.

KSZ001>006-013>018-027>032-041>047-240300-
NORTHWEST KANSAS

CITY           SKY/WX    TMP DP  RH WIND       PRES   REMARKS
GOODLAND       CLOUDY    26  19  74 SE12      30.02R WCI  16
HILL CITY      CLOUDY    25  20  81 E6        30.12S
RUSSELL        CLOUDY    33  28  81 E6        30.12R
$$

KSZ061>065-074>080-084>089-240300-
SOUTHWEST KANSAS

CITY           SKY/WX    TMP DP  RH WIND       PRES   REMARKS
DODGE CITY     CLOUDY    29  26  89 E9        30.07S
ELKHART        FOG       31  31 100 E12       29.98S VSB 1   WCI  22
GARDEN CITY    CLOUDY    28  25  88 E14       30.04S WCI  17
GREAT BEND     CLOUDY    31  27  85 E10       30.13R WCI  22
LIBERAL        MIX PCPN  29  28  96 E12       30.03S VSB 1/2 WCI  19
PRATT          CLOUDY    30  27  88 E8        30.11S
$$

KSZ066>073-081>083-090>101-240300-
SOUTHEAST KANSAS

CITY           SKY/WX    TMP DP  RH WIND       PRES   REMARKS
CHANUTE        LGT RAIN  37  36  96 NE9       30.17S FOG
COFFEYVILLE    LGT RAIN  39  38  96 NE10      30.13F FOG     WCI  32
HUTCHINSON     CLOUDY    31  29  92 NE13      30.13F WCI  21
MEDICINE LODGE   N/A     31  31 100 NE9       30.10F
NEWTON         CLOUDY    30  29  96 E8        30.15F
PARSONS        LGT RAIN  38  37  97 NE9       30.13F
WICHITA INTL   CLOUDY    33  32  96 NE12      30.12F FOG     WCI  24
WICHITA JABRA  CLOUDY    31  31 100 NE9       30.12F FOG
WICHITA MCCONL MIX PCPN  32  32  99 E9        30.12  FOG
WINFIELD       CLOUDY    34  34 100 NE10      30.13S FOG     WCI  26
$$

KSZ007>012-019>026-033>040-048>060-102>105-240300-
NORTHEAST KANSAS

CITY           SKY/WX    TMP DP  RH WIND       PRES   REMARKS
CONCORDIA      CLOUDY    31  26  82 NE10      30.17F WCI  22
EMPORIA        CLOUDY    31  29  92 NE12      30.16F WCI  22
LAWRENCE       CLOUDY    34  30  85 NE6       30.22F
MANHATTAN      CLOUDY    35  29  78 E7        30.20F
MARYSVILLE     CLOUDY    32  28  86 NE8       30.21F
OLATHE IND     CLOUDY    33  31  92 NE9       30.21F
OLATHE EXE     CLOUDY    33  30  88 NE8       30.20F
SALINA         CLOUDY    33  28  81 E10       30.18F WCI  25
TOPEKA BILLARD CLOUDY    34  31  88 E6        30.23S
TOPEKA FORBES  CLOUDY    34  30  85 NE6       30.20S
$$




USA.gov is the U.S. government's official web portal to all federal, state and local government web resources and services.